COSMOS 2491 DEB, 45130

Orbit data source: Space-Track

COSMOS 2491 DEB, 45130 is space debris in LEO originally from a launch on Wed, 25 Dec 2013 UTC launched from the Plesetsk Missile And Space Complex (PKMTR). Debris objects in space refer to the collection of defunct objects orbiting the Earth. Examples of debris include non-operational satellites, rocket bodies, and fragments generated from explosions, collisions, or faulty payload assembly.

Loading next visibility...
Identifier
45130, 2013-076AC
Orbit
LEO
Last TLE update
3 days ago
Origin
Manufacturer
TsNIIKhM
Mission
Spacecraft
Bus & Motor
Unknown
Mass
Unknown
Launch date (UTC)
2013-12-25 (12 years ago)
Launch vehicle
Unknown
Launch site
Plesetsk Missile And Space Complex (PKMTR)
Object type
Payload
Rocket body
Debris
Shape & HBR
Unknown
Radar Cross Section
Small (<0.1 m²)

Expand to show TLE details & history

TLE from 3 days ago
0 COSMOS 2491 DEB
1 45130U 13076AC  25197.08699856  .00003031  00000-0  14100-1 0  9999
2 45130  82.4403 324.0562 0194298 178.6909 181.4736 12.70068889251996
Epoch: 2025-07-16T02:05Z
TLE epoch observation values (Epoch: 2025-07-16T02:05:16.675Z)
Latitude
-0.00004°
Longitude
-1.43549°
Altitude
1,535.148 km
Speed
7.029 km/s
True Right ascension
21h 36m 13s
True Declination
0° 00' 00"
Sunlit
Object was in full shadow at epoch
Visualization orbit readout
Latitude
-61.23835°
Longitude
-169.41965°
Altitude
1,350.728 km
Speed
7.207 km/s
Apparent Right ascension
03h 20m 00s
Apparent Declination
-77° 56' 52"
Sunlit
Object is in daylight
Visualization observer readout
Local Sidereal Time
12:12:06
Azimuth
193.048° SSW
Elevation
-47.459°
Doppler factor
1
Orbital elements
Apogee altitude
1,529.692 km
Perigee altitude
1,228.254 km
Semi-major axis
7,757.11 km
Eccentricity
0.01943
Inclination
82.4403°
RAAN
324.0562°
Arg. of periapsis
178.6909°
True anomaly
181.4177°
Mean anomaly
181.4736°
Eccentric anomaly
181.44552°
Mean motion
3.17682 °/min
Orbital period
113.32 mins
BSTAR
0.0141
Loading maneuver chart data...
Loading SW <> Apogee altitude chart data...
Loading historical data...
Loading historical data...
Loading historical data...
Loading historical data...
Loading historical data...
Loading historical data...
Loading historical data...
|